{"data":{"norad_id":66239,"intl_designator":"2025-245F","name":"STARLINK-35554","alt_names":[],"object_type":"PAYLOAD","status":"ACTIVE","operator":null,"country":"US","launch_date":"2025-10-29","launch_site_code":"AFETR","launch_vehicle":null,"mission":null,"orbit_class":"UNKNOWN","rcs_meters":null,"size_class":null,"mass_kg":null,"dimensions":null,"purposes":["comms"],"wikipedia_slug":null,"has_3d_model":false,"image_url":null,"decayed_at":null,"tle_current":{"epoch":"2026-05-25T02:22:01.422912Z","epoch_age_seconds":56712,"freshness":"FRESH","line1":"1 66239U 25245F   26145.09862758  .00015110  00000+0  52122-3 0  9999","line2":"2 66239  53.1612 289.0862 0000425  75.2440 284.8608 15.30201559 32792","mean_motion":15.30201559,"eccentricity":4.25e-5,"inclination_deg":53.1612,"raan_deg":289.0862,"arg_perigee_deg":75.244,"mean_anomaly_deg":284.8608,"bstar":0.00052122,"rev_number":3279,"period_min":94.105249830032,"perigee_km":474.91914726517,"apogee_km":475.5016817954,"semimajor_km":6853.3474145303,"source":"CELESTRAK","updated_at":"2026-05-25T13:38:21.134177Z"}}}